Location: G�rlitz
(51.1670°N, 15.0000°E)
Time: 19:31:20
(UTC+01:00)

Envisat - Pass Details

Date: 18 February 2026
Orbit: 761 x 763 km, 98.4° (Epoch: 11 March)

Event Time Altitude Azimuth Distance (km) Brightness Sun altitude
Rises 02:57:20 0° 14° (NNE) 3,237 6.8 -38.5°
Reaches altitude 10° 02:59:38 10° 14° (NNE) 2,307 5.9 -38.2°
Enters shadow 03:00:40 16° 14° (NNE) 1,898 5.4 -38.0°
